星链-36278(STARLINK-36278)

导读

STARLINK-36278(NORAD编号68685)是SpaceX星链(Starlink)项目中的卫星,是Starlink 6-85任务发射的29颗星链卫星之一,于2025年11月15日由猎鹰9号运载火箭从卡纳维拉尔角空军基地发射升空,顺利进入近地轨道。作为星链互联网卫星,它主要为全球提供高速宽带互联网服务。当前SpaceX计划2026年将数千颗星链卫星轨道高度降至480公里以提升太空安全,该卫星预计也在此调整范围内,服务全球互联同时降低太空碎片风险。

Basic Information
目录编号:
68685
目录名称:
STARLINK-36278
国际标识:
2026-077Z
轨道中心:
EARTH
卫星名称:
星链-36278
卫星全名:
星链-36278(STARLINK-36278)
卫星状态:
在轨 (已飞行146 天)
发射日期:
2026-04-11 UTC
国别 :
美国 (US)
星等 :
--
Orbit Information
数据来源 国际轨道数据
星历时间: 2026-09-03T11:42:35+0800
1天前
查看轨道信息
半长轴: 6843.674km
偏心率: 0.000185
轨道倾角: 97.285°
近地点辐角 113.545°
升交点赤经 119.326°
平近点角 246.599°
近地点: 464.27km
远地点: 466.804km
周期: 93.906分钟
每日圈数: 15.334473
Detailed Information
固有亮度:
5
最大亮度:
2.5
卫星平台:
Starlink V1.0
覆盖范围:
全球
运营商:
太空探索技术公司
运营商所在国:
美国
制造商(研发单位):
太空探索技术公司
制造商所在国:
美国
使用方式:
暂无
Satellite Introduction
Starlink 计划是 SpaceX 推出的全球卫星互联网项目,通过发射低轨道卫星,为全球尤其是偏远地区提供高速、低延迟的互联网服务。自 2019 年起,Starlink 已部署数千颗卫星,旨在缩小全球数字鸿沟,推动互联网普及。该项目还为军事、航空等行业提供通信支持,带来广泛经济效益。
2D Orbit Map
3D Orbit Map
Orbit Altitude Analysis Chart
Orbit Inclination Analysis Chart
Orbit Comprehensive Analysis Chart
View Comprehensive Chart
Conjunction Data List
Event ID Objects TCA Miss Dist (km) Collision Risk Probability Collision Risk Index (CRI) Action
CDM_260901-161504-836806-868522
2026-09-01T
16:15:32+0000
1.302 km
极远距离
1.024606E-5 中风险 0.55
CDM_260829-204106-489106-868522
OBJECT R (64891)
2026-08-29T
20:41:58+0000
1.308 km
极远距离
8.853474E-6 低风险 0.54
CDM_260905-070105-913106-868521
MESON-1 (59131)
2026-09-05T
07:01:59+0000
2.255 km
极远距离
1.796711E-6 低风险 0.4
CDM_260904-001705-256506-868521
2026-09-04T
00:17:55+0000
2.408 km
极远距离
1.56477E-6 低风险 0.39
CDM_260904-010405-256506-868521
2026-09-04T
01:04:52+0000
2.876 km
极远距离
1.181826E-6 低风险 0.36
CDM_260901-184105-363006-868521
2026-09-01T
18:41:57+0000
2.994 km
极远距离
8.497041E-7 极低风险 0.34